N1011S -KLAL

Flight info

Callsign N1011S
Flight time N/A
Altitude
Route
Aircraft C28R/L-DOV/C

Departure

Time N/A
Airport -

Arrival

Time 2026-04-26 21:59
Airport Lakeland Linder International Airport (KLAL)
Time Latitude Longitude Altitude Speed Heading
2026-04-26 21:53 28.07878 -81.94998 1224 ft 92 kts 282°
2026-04-26 21:53 28.07934 -81.95728 1224 ft 92 kts 266°
2026-04-26 21:53 28.07982 -81.96445 1220 ft 91 kts 277°
2026-04-26 21:54 28.07987 -81.97155 1215 ft 90 kts 260°
2026-04-26 21:54 28.07744 -81.97812 1219 ft 92 kts 242°
2026-04-26 21:54 28.07362 -81.98401 1227 ft 93 kts 237°
2026-04-26 21:54 28.06957 -81.98986 1240 ft 95 kts 236°
2026-04-26 21:55 28.06526 -81.99564 1227 ft 97 kts 231°
2026-04-26 21:55 28.06071 -82.00117 1231 ft 96 kts 232°
2026-04-26 21:55 28.05671 -82.00717 1223 ft 95 kts 240°
2026-04-26 21:55 28.05283 -82.01316 1228 ft 95 kts 234°
2026-04-26 21:56 28.04850 -82.01884 1232 ft 98 kts 230°
2026-04-26 21:56 28.04191 -82.02178 1225 ft 106 kts 191°
2026-04-26 21:56 28.03452 -82.02046 1219 ft 107 kts 175°
2026-04-26 21:56 28.02727 -82.01886 1223 ft 106 kts 176°
2026-04-26 21:57 28.02000 -82.01747 1218 ft 105 kts 178°
2026-04-26 21:57 28.01276 -82.01678 1215 ft 103 kts 186°
2026-04-26 21:57 28.00571 -82.01451 1215 ft 110 kts 155°
2026-04-26 21:57 28.00017 -82.00667 1052 ft 111 kts 118°
2026-04-26 21:58 27.99585 -82.00069 957 ft 86 kts 162°
2026-04-26 21:58 27.99487 -82.00046 947 ft 77 kts 187°
2026-04-26 21:58 27.99077 -82.01007 298 ft 93 kts 266°
2026-04-26 21:58 27.99045 -82.01667 215 ft 75 kts 268°
2026-04-26 21:59 27.99038 -82.02193 165 ft 66 kts 269°
2026-04-26 21:59 27.99035 -82.02652 138 ft 51 kts 269°
2026-04-26 21:59 27.99031 -82.02983 136 ft 36 kts 270°
2026-04-26 21:59 27.99029 -82.03237 134 ft 26 kts 268°
2026-04-26 22:00 27.98978 -82.03357 135 ft 12 kts 172°
2026-04-26 22:00 27.98910 -82.03352 136 ft 9 kts 179°
2026-04-26 22:00 27.98852 -82.03348 136 ft 7 kts 171°
2026-04-26 22:00 27.98819 -82.03308 136 ft 8 kts 99°
2026-04-26 22:01 27.98815 -82.03265 136 ft 9 kts 91°
2026-04-26 22:01 27.98818 -82.03167 136 ft 10 kts 85°
2026-04-26 22:01 27.98819 -82.03080 135 ft 12 kts 88°
2026-04-26 22:01 27.98819 -82.02980 134 ft 14 kts 94°
2026-04-26 22:02 27.98820 -82.02861 133 ft 16 kts 90°
2026-04-26 22:02 27.98820 -82.02769 133 ft 17 kts 91°
2026-04-26 22:02 27.98811 -82.02693 134 ft 8 kts 90°
2026-04-26 22:02 27.98813 -82.02613 135 ft 8 kts 92°
2026-04-26 22:03 27.98817 -82.02550 135 ft 8 kts 89°
2026-04-26 22:03 27.98815 -82.02481 135 ft 9 kts 92°
2026-04-26 22:03 27.98816 -82.02402 135 ft 11 kts 89°
2026-04-26 22:03 27.98803 -82.02320 135 ft 11 kts 131°
2026-04-26 22:04 27.98735 -82.02297 135 ft 6 kts 111°
2026-04-26 22:04 27.98732 -82.02254 136 ft 5 kts 123°
2026-04-26 22:04 27.98703 -82.02252 136 ft 3 kts 215°
2026-04-26 22:04 27.98701 -82.02261 136 ft 0 kts 262°
2026-04-26 22:05 27.98700 -82.02277 135 ft 0 kts 266°
2026-04-26 22:05 27.98699 -82.02283 135 ft 0 kts 262°